Weather Roundup
Issued by NWS Corpus Christi, TX

Home | Current Version | Previous Version | Text Only | Print | Product List | Glossary On
Versions: 1 2 3 4 5 6 7 8 9 10 11 12 13 14 15 16 17 18 19 20 21 22 23 24 25 26 27 28 29 30 31 32 33 34 35 36 37 38 39 40 41 42 43 44 45 46 47 48 49 50
000
ASUS44 KCRP 290010
HRRCRP

SOUTH TEXAS REGIONAL WEATHER ROUNDUP
NATIONAL WEATHER SERVICE CORPUS CHRISTI TX
600 PM CST FRI NOV 28 2014


TXZ229>244-290100-
...CORPUS CHRISTI AREA OBSERVATIONS...

CITY           SKY/WX    TMP DP  RH WIND       PRES   REMARKS
CORPUS CHRISTI CLEAR     67  55  65 SE12      30.14F
NAS CORPUS CHR CLEAR     66  60  81 SE10      30.15F
ROCKPORT       CLEAR     65  58  78 SE6       30.15F
KINGSVILLE NAS CLEAR     67  58  72 SE10      30.14S
ALICE          CLEAR     67  55  65 SE10      30.13S
FALFURRIAS     CLEAR     69  52  54 SE5       30.13S
$$

...VICTORIA AREA OBSERVATIONS...

CITY           SKY/WX    TMP DP  RH WIND       PRES   REMARKS
VICTORIA       CLEAR     67  53  61 S12       30.16R
BEEVILLE       FAIR      66  53  61 SE9       30.13S
PLEASANTON     CLEAR     67  47  47 S5        30.12F
SAN ANTONIO    PTCLDY    67  46  47 S6        30.12S
$$

...LAREDO AREA OBSERVATIONS...

CITY           SKY/WX    TMP DP  RH WIND       PRES   REMARKS
LAREDO         CLEAR     67  51  56 SE5       30.13F
COTULLA        CLEAR     70  46  42 S6        30.11F
DEL RIO        CLEAR     66  46  48 E7        30.07F
MCALLEN        CLEAR     69  55  60 SE14      30.13S
HEBBRONVILLE   CLEAR     68  51  55 SE6       30.13F
$$

...OTHER TEXAS OBSERVATIONS...

CITY           SKY/WX    TMP DP  RH WIND       PRES   REMARKS
BROWNSVILLE    CLEAR     67  57  70 SE8       30.16S
HOUSTON        PTCLDY    65  55  70 S7        30.17S
COL. STATION   CLEAR     63  52  67 S8        30.12F
AUSTIN         PTCLDY    61  46  57 S6        30.11S
WACO           CLEAR     63  49  60 S13       30.07F
FORT WORTH     PTCLDY    65  48  54 S14       30.01S
WICHITA FALLS  CLEAR     64  45  49 S13       29.91F
LUBBOCK        PTCLDY    66  25  21 SW13      29.96S
EL PASO        CLEAR     64  20  18 SE6       30.08F
$$

...MARINE OBSERVATIONS...

STATION/POSITION TIME  SKY/WX   TEMP    WIND        PRES    VSBY  WAVE   SWELL
                                AIR SEA DIR/SP/G                  HT/PER HT/PER
                 (UTC)          (F)     (DEG/KT/KT) (MB)    (MI)  (FT/S) (FT/S)
PORT ARANSAS     0000            67 65  140/  9/ 10 1022.0F
BUOY 90 E PORT A 0000            71 72  170/ 14/ 16 1022.5F         2/ 4
BUOY 45 SE BAFFI 0000            72 73  170/ 14/ 17 1021.3S         2/ 3
BUOY 200 E PT IS 0000            70 74  130/  8/ 12 1023.4F         2/ 6   2/ 6
BUOY 15 E GALVES 0000            63 62  130/  6/  6 1022.3F         2/ 4   2/ 4
$$


USA.gov is the U.S. government's official web portal to all federal, state and local government web resources and services.